Location: ???????
(55.4362°N, 38.1183°E)
Time: 17:50:12
(UTC+00:00)

Cosmos 1869 - Pass Details

Date: 17 June 2021
Orbit: 518 x 562 km, 82.5° (Epoch: 29 July)

Event Time Altitude Azimuth Distance (km) Brightness Sun altitude
Rises 22:15:25 0° 346° (NNW) 2,771 8.2 -10.5°
Reaches altitude 10° 22:17:37 10° 344° (NNW) 1,871 7.1 -10.5°
Maximum altitude 22:21:43 67° 262° (W) 616 3.5 -10.3°
Enters shadow 22:25:10 14° 181° (S) 1,609 5.1 -10.2°
